Regional Weather Roundup
Issued by NWS Wakefield, VA

Home | Current Version | Previous Version | Graphics & Text | Print | Product List | Glossary On
Versions: 1 2 3 4 5 6 7 8 9 10 11 12 13 14 15 16 17 18 19 20 21 22 23 24 25 26 27 28 29 30 31 32 33 34 35 36 37 38 39 40 41 42 43 44 45 46 47 48 49 50
000
ASUS41 KAKQ 222216
RWRAKQ

REGIONAL WEATHER ROUNDUP
NATIONAL WEATHER SERVICE WAKEFIELD VA
600 PM EDT FRI SEP 22 2017

Note: "fair" indicates few or no clouds below 12,000 feet with no
significant weather and/or obstructions to visibility. * = Denotes
station may not report precipitation (e.g., rain,snow,etc.),
thunder or fog.

VAZ042-051-052>054-056-222300-
NORTHERN VIRGINIA

CITY           SKY/WX    TMP DP  RH WIND       PRES   REMARKS
WASH NATIONAL  CLOUDY    81  66  60 NW10      29.99S
DULLES         PTSUNNY   79  65  62 NW6       30.00F
FORT BELVOIR   PTSUNNY   81  64  56 NW6       29.99S
QUANTICO       CLOUDY    81  66  60 N5        30.00S
FREDERICKSBRG* PTSUNNY   81  65  57 N6        29.99S
STAFFORD*      MOSUNNY   77  69  77 CALM      30.04R
WARRENTON      CLOUDY    80  61  52 CALM      30.00S
CULPEPER*      CLOUDY    81  67  63 CALM      30.01S
MANASSAS*      PTSUNNY   79  65  62 N5        30.00F
LEESBURG*      CLOUDY    81  68  65 NW3       30.01S
WINCHESTER     CLOUDY    77  63  61 CALM      30.02S
FRONT ROYAL*   CLOUDY    79  66  65 CALM      30.02S
LURAY*         CLOUDY    82  61  47 E3        30.03R
$$

VAZ048-049-060>072-079>083-222300-
CENTRAL AND SOUTH CENTRAL VIRGINIA

CITY           SKY/WX    TMP DP  RH WIND       PRES   REMARKS
RICHMOND       PTSUNNY   80  65  59 NW5       29.99F
CHESTERFIELD*  NOT AVBL
PETERSBURG*    CLOUDY    80  66  62 CALM      30.01S
HANOVER        CLOUDY    77  71  82 CALM      30.01S
TAPPAHANNOCK*  CLOUDY    82  47  28 NW6       30.00S
QUINTON*       FAIR      77  71  80 CALM      29.99S
CHARLOTTSVILLE CLOUDY    83  65  54 NE5       30.01S
GORDONSVILLE*  CLOUDY    80  70  71 CALM      30.01S
ORANGE*        CLOUDY    81  63  54 CALM      30.01S
LOUISA*        CLOUDY    79  70  73 CALM      30.01S
BUMPASS*       FAIR      77  73  86 CALM      30.01S
FARMVILLE*     CLOUDY    83  67  57 CALM      30.00S
CREWE*         FAIR      80  71  74 CALM      30.01S
FORT PICKETT*  FAIR      79  69  70 NE3       30.01S
CHASE CITY*    FAIR      82  64  53 CALM      30.01S
CLARKSVILLE*   FAIR      84  63  48 NE3       30.00R
SOUTH HILL*    CLOUDY    82  65  57 N3        30.06S
LAWRENCEVILLE* FAIR      79  69  71 CALM      30.00S
EMPORIA*       CLOUDY    79  68  69 CALM      30.01S
$$

VAZ088>098-222300-
SOUTHEAST VIRGINIA

CITY           SKY/WX    TMP DP  RH WIND       PRES   REMARKS
NORFOLK        SUNNY     81  63  54 NE3       29.98S
VIRGINIA BEACH MOSUNNY   79  60  52 NW5       29.97F
NORFOLK NAVAL  MOSUNNY   81  63  54 N5        29.99F
WEST POINT*    PTSUNNY   81  64  57 CALM      30.00S
SALUDA*        FAIR      79  68  70 CALM      29.98S
NEWPORT NEWS   SUNNY     80  67  64 W6        29.98F
LANGLEY AFB    MOSUNNY   80  67  64 W5        29.98S
FORT EUSTIS    SUNNY     83  68  62 W3        29.96F
WILLIAMSBURG*  SUNNY     82  70  65 NW6       30.00S
HR EXEC AP*    FAIR      79  71  76 CALM      29.99S
FRANKLIN*      SUNNY     80  66  61 CALM      29.99S
US460-WAKEFLD  MOSUNNY   77  71  82 CALM      30.00S
$$

VAZ020-022-025-037-045-222300-
WEST CENTRAL AND SOUTHWEST VIRGINIA

CITY           SKY/WX    TMP DP  RH WIND       PRES   REMARKS
STAUNTON*      MOSUNNY   82  63  52 CALM      30.06S
WAYNESBORO*    MOCLDY    79  67  65 CALM      30.06S
HOT SPRINGS VA SUNNY     74  52  45 CALM      30.20S
LYNCHBURG      PTSUNNY   82  62  50 E5        30.04R
DANVILLE       SUNNY     85  64  49 NE5       30.01F
SOUTH BOSTON*  FAIR      84  58  40 NE3       30.01R
MARTINSVILLE   MOSUNNY   79  70  73 CALM      30.06R
ROANOKE        PTSUNNY   83  56  39 SE3       30.05F
BLACKSBURG     MOSUNNY   80  65  60 E6        30.13S
DUBLIN*        CLOUDY    81  64  55 NE6       30.11R
MARION*        SUNNY     81  55  41 CALM      30.13S
HILLSVILLE*    PTSUNNY   77  59  54 CALM      30.12R
RICHLANDS*     FAIR      79  58  49 NW6       30.13S
WISE*          SUNNY     77  59  53 N6        30.15S
ABINGDON*      SUNNY     84  60  44 CALM      30.09S
$$

MDZ021>025-VAZ099-100-222300-
SOUTHERN MARYLAND AND THE DELMARVA PENINSULA

CITY           SKY/WX    TMP DP  RH WIND       PRES   REMARKS
PATUXENT RIVER PTSUNNY   79  66  64 NW5       29.98R
BAY BRIDGE APT CLOUDY    77  66  69 NW5       29.98S
LEONARDTOWN    PTSUNNY   75  68  78 CALM      30.00R
DOVER          MOSUNNY   76  74  94 W7        29.97S
GEORGETOWN     CLOUDY    78  64  61 N3        29.97S
EASTON         PTSUNNY   81  63  54 N5        30.02R
CAMBRIDGE      SUNNY     81  68  65 N8        29.97S
SALISBURY      MOSUNNY   77  65  66 NW6       29.97R
OCEAN CITY     PTSUNNY   76  66  71 NW5       29.97R
WALLOPS ISLAND MOSUNNY   76  66  71 MISG      29.98R
ACCOMACK*      CLOUDY    76  66  72 NW5       29.98R
$$

NCZ012>017-030>032-222300-
NORTH CENTRAL AND EASTERN NORTH CAROLINA

CITY           SKY/WX    TMP DP  RH WIND       PRES   REMARKS
ROANOKE RAPIDS MOCLDY    82  68  61 CALM      29.99R
RALEIGH        MOSUNNY   86  61  42 NE5       29.99F
ELIZABETH CITY SUNNY     81  69  67 N7        29.98S
AHOSKIE*       CLOUDY    79  70  74 N6        29.99S
EDENTON*       MOSUNNY   82  71  68 CALM      29.99R
CURRITUCK*     SUNNY     81  67  63 N6        29.98F
KILL DEVIL HLS SUNNY     75  68  79 CALM      29.98R
MANTEO         SUNNY     79  63  58 NE6       29.99R
CAPE HATTERAS  SUNNY     80  71  74 SW3       29.99R
TARBORO*       NOT AVBL
GOLDSBORO      SUNNY     86  64  47 N5        29.97S
WASHINGTON     SUNNY     85  63  47 CALM      29.98S
GREENVILLE     MOSUNNY   86  64  48 N5        30.00S
NEW BERN       SUNNY     84  66  54 NE6       29.99R
WILMINGTON     SUNNY     82  68  62 SE8       29.99S
$$

VAZ048-222300-
ELSEWHERE

CITY           SKY/WX    TMP DP  RH WIND       PRES   REMARKS
HARRISBURG PA  PTSUNNY   80  62  54 NW8       29.99S
BALTIMORE      CLOUDY    77  65  66 CALM      29.98F
ANNAPOLIS      CLOUDY    79  68  69 NW3       29.98S
ANDREWS AFB    CLOUDY    78  62  57 N9        29.98F
PHILADELPHIA   PTSUNNY   81  56  42 N8        29.95S
HENDERSON NC   SUNNY     81  61  50 CALM      30.00F
GREENSBORO     MOSUNNY   84  65  52 NE9       30.02S
ROCKY MOUNT    SUNNY     85  64  49 N5        29.98F
$$

VAZ100-222300-
MARINE

STATION/POSITION TIME  TEMP    WIND        PRES    WAVE   SWELL
                       AIR SEA DIR/SP/G            HT/PER HT/PER
                 (UTC) (F)     (DEG/KT/KT) (MB)    (FT/S) (FT/S)
BRANDYWINE LGT   2136   76     340/ 12/ 13 1014.6F
CAPE MAY NJ      2136   75 74  330/  8/ 10 1013.6S
LEWES DE         2136   76 74  330/ 10/ 11 1014.3S
15NM E FENWICK I 2150   74 71  310/ 12/ 14 1014.5S   6/11   5/11
OCEAN-CITY-INLET 2136   77 74  350/  8/ 10 1014.8R
WACHAPREAGUE VA  2136   77 78  300/  1/  5 1015.0S
THOMAS POINT MD  2200   78 76  350/  5/  5   N/A
GOOSES REEF MD   2200   79 76   20/  8/ 12 1015.6
COVE POINT MD    2136   77     350/  6/  7 1015.7R
SOLOMONS ISLAND  2136   79 76  310/  4/  7 1014.7R
BISHOPS HEAD MD  2136   79 78  330/  9/ 12 1015.3R
PINEY POINT MD   2142          310/ 10/ 11   N/A
POTOMAC MD       2200   78 76  300/ 10/ 12 1014.5    1/ 2
CAMBRIDGE MD     2136   81 77              1015.9R
LEWISETTA VA     2136   79 77  320/  8/ 10 1015.3R
RAPPAHANNOCK LGT 2142          340/  2/  2 1015.9R
STINGRAY PT      2200   78 77  310/  6/  8 1015.5    0
YORK RVR RNG VA  2148   79     280/  8/  8 1015.6F
YORKTOWN VA      2148   78 77  290/  4/  5 1014.9F
JAMESTOWN VA     2200      79  290/  4/  4   N/A     0
DOMINION TERM VA 2148   78     320/  7/  8 1015.4F
KIPTOPEKE VA     2142      76  330/  2/  3   N/A
CHES BAY BRIDGE  2148   77 76   30/  1/  1 1015.2F
CAPE HENRY VA    2148   78     300/  4/  5   N/A
WILLOUBY STN VA  2148   81      CALM  /  1 1015.4F
S CRANEY ISL VA  2148   82     270/  2/  4 1015.1F
CAPE HENRY BUOY  2200      75                N/A     4/12   2/12
1ST LANDING BUOY 2200   77 76              1015.1    2/ 5
64NM E OF VA BCH 2150   72 72  350/  6/  8 1015.6S   9/11   8/11
DUCK PIER NC     2148   76 77   50/  4/  5 1015.0F
44100 DUCK FRF   2135      75                N/A     7/12   5/12
44056 DUCK FRF   2200      76                N/A     5/12   3/12
OREGON INLET NC  2142   77 78   20/  4/  6 1015.5R
HATTERAS NC      2148   80 79  200/  3/  5 1015.5R
DIAMOND SHLS NC  2150   78 79  220/  4/  6 1015.6R   6/13   5/13
CAPE LOOKOUT NC  2200   79     150/  6/  6 1015.5R
$$



USA.gov is the U.S. government's official web portal to all federal, state and local government web resources and services.